Tracking 17844 objects as of 24-August-2016
HD Live streaming from Space Station
objects crossing your sky now

CRRES DEB (CANISTER)

Track CRRES DEB (CANISTER) now!


NORAD ID: 21590
Int'l Code: 1990-065F
Perigee: 364.1 km
Apogee: 31,238.7 km
Inclination: 20.1 °
Period: 547.6 minutes
Semi major axis: 22172 km
RCS: 0.1267 m2 (medium)
Launch date: July 25, 1990
Source: United States (US)
Launch site: AIR FORCE EASTERN TEST RANGE (AFETR)

Note: This is SATELLITE DEBRIS
Your satellite tracking list
Your tracking list is empty





NASA's NSSDC Master Catalog

Two Line Element Set (TLE):
1 21590U 90065F   16235.98612353  .00000027  00000-0  11629-3 0  9992
2 21590  20.1025 186.3317 6962416 191.6264 134.9215  2.62956652225615
Source of the keplerian elements: AFSPC

N2YO: 795